When you browse on this site, cookies collect data to enhance your experience and personalize the content and advertising you see.
Visit our Privacy Policy to learn more. By continuing to use the site, you agree to this use of cookies and data.
  • en Suisse
  • Liste des pays
  • À 7 jours
  • Température de l'eau
  • Carte météo
  • Widgets météo
  • user-avatar
    Se connecter

    Météo par heure à Yanliang

    Ce jour, 6 Juin, Samedi

    Heure Température Précipitation Vent Pression Humidité
    00:00 +30°C° 0 mm 2 m/s 720 mmHg 28%
    01:00 +29°C° 0 mm 2 m/s 720 mmHg 31%
    02:00 +28°C° 0 mm 2 m/s 720 mmHg 33%
    03:00 +28°C° 0 mm 3 m/s 720 mmHg 36%
    04:00 +27°C° 0 mm 3 m/s 720 mmHg 38%
    05:00 +29°C° 0 mm 3 m/s 720 mmHg 36%
    06:00 +30°C° 0 mm 4 m/s 721 mmHg 34%
    07:00 +33°C° 0 mm 5 m/s 721 mmHg 34%
    08:00 +35°C° 0 mm 5 m/s 721 mmHg 30%
    09:00 +38°C° 0 mm 6 m/s 722 mmHg 26%
    10:00 +40°C° 0 mm 6 m/s 722 mmHg 21%
    11:00 +41°C° 0 mm 7 m/s 721 mmHg 19%
    12:00 +43°C° 0 mm 7 m/s 720 mmHg 18%
    13:00 +43°C° 0 mm 8 m/s 720 mmHg 16%
    14:00 +41°C° 0 mm 8 m/s 720 mmHg 18%
    15:00 +42°C° 0 mm 9 m/s 719 mmHg 19%
    16:00 +40°C° 0 mm 9 m/s 719 mmHg 20%
    17:00 +39°C° 0 mm 8 m/s 719 mmHg 23%
    18:00 +36°C° 0 mm 7 m/s 719 mmHg 26%
    19:00 +34°C° 0 mm 4 m/s 720 mmHg 27%
    20:00 +33°C° 0 mm 3 m/s 720 mmHg 29%
    21:00 +31°C° 0 mm 3 m/s 721 mmHg 32%
    22:00 +30°C° 0 mm 2 m/s 721 mmHg 34%
    23:00 +29°C° 0 mm 3 m/s 721 mmHg 34%

    Demain, 7 Juin, Dimanche

    Heure Température Précipitation Vent Pression Humidité
    00:00 +29°C° 0 mm 3 m/s 721 mmHg 34%
    01:00 +28°C° 0 mm 3 m/s 720 mmHg 33%
    02:00 +28°C° 0 mm 3 m/s 720 mmHg 34%
    03:00 +27°C° 0 mm 3 m/s 720 mmHg 35%
    04:00 +27°C° 0 mm 3 m/s 721 mmHg 36%
    05:00 +28°C° 0 mm 3 m/s 721 mmHg 35%
    06:00 +29°C° 0 mm 3 m/s 721 mmHg 33%
    07:00 +30°C° 0 mm 3 m/s 721 mmHg 32%
    08:00 +33°C° 0 mm 3 m/s 721 mmHg 28%
    09:00 +35°C° 0 mm 3 m/s 721 mmHg 24%
    10:00 +37°C° 0 mm 3 m/s 721 mmHg 20%
    11:00 +38°C° 0 mm 3 m/s 721 mmHg 18%
    12:00 +39°C° 0 mm 3 m/s 720 mmHg 16%
    13:00 +40°C° 0 mm 3 m/s 720 mmHg 15%
    14:00 +41°C° 0 mm 4 m/s 719 mmHg 15%
    15:00 +41°C° 0 mm 4 m/s 719 mmHg 16%
    16:00 +41°C° 0 mm 5 m/s 719 mmHg 17%
    17:00 +39°C° 0 mm 5 m/s 719 mmHg 22%
    18:00 +36°C° 0 mm 4 m/s 719 mmHg 28%
    19:00 +34°C° 0 mm 4 m/s 719 mmHg 33%
    20:00 +33°C° 0 mm 4 m/s 719 mmHg 38%
    21:00 +31°C° 0 mm 3 m/s 720 mmHg 43%
    22:00 +30°C° 0 mm 2 m/s 720 mmHg 48%
    23:00 +29°C° 0 mm 2 m/s 720 mmHg 49%

    Après-demain, 8 Juin, Lundi

    Heure Température Précipitation Vent Pression Humidité
    00:00 +29°C° 0 mm 2 m/s 720 mmHg 51%
    01:00 +28°C° 0 mm 2 m/s 720 mmHg 52%
    02:00 +28°C° 0 mm 2 m/s 720 mmHg 53%
    03:00 +27°C° 0 mm 2 m/s 721 mmHg 54%
    04:00 +27°C° 0 mm 3 m/s 721 mmHg 55%
    05:00 +27°C° 0 mm 3 m/s 722 mmHg 47%
    06:00 +28°C° 0 mm 4 m/s 722 mmHg 40%
    07:00 +29°C° 0 mm 5 m/s 723 mmHg 33%
    08:00 +29°C° 0 mm 6 m/s 724 mmHg 33%
    09:00 +29°C° 0 mm 6 m/s 724 mmHg 33%
    10:00 +30°C° 0 mm 6 m/s 725 mmHg 33%
    11:00 +28°C° 0.1 mm 6 m/s 725 mmHg 39%
    12:00 +26°C° 0.1 mm 5 m/s 725 mmHg 45%
    13:00 +23°C° 0.1 mm 4 m/s 725 mmHg 52%
    14:00 +22°C° 0.1 mm 4 m/s 726 mmHg 55%
    15:00 +22°C° 0.1 mm 4 m/s 726 mmHg 58%
    16:00 +21°C° 0.1 mm 4 m/s 726 mmHg 62%
    17:00 +20°C° 0.5 mm 4 m/s 726 mmHg 67%
    18:00 +20°C° 0.5 mm 4 m/s 726 mmHg 72%
    19:00 +19°C° 0.5 mm 4 m/s 726 mmHg 76%
    20:00 +19°C° 0.1 mm 4 m/s 726 mmHg 76%
    21:00 +19°C° 0.1 mm 3 m/s 726 mmHg 75%
    22:00 +20°C° 0.1 mm 3 m/s 726 mmHg 74%
    23:00 +19°C° 0.1 mm 3 m/s 726 mmHg 76%

    9 Juin, Mardi

    Heure Température Précipitation Vent Pression Humidité
    00:00 +19°C° 0.1 mm 3 m/s 726 mmHg 77%
    01:00 +19°C° 0.1 mm 2 m/s 725 mmHg 79%
    02:00 +19°C° 0 mm 2 m/s 725 mmHg 79%
    03:00 +19°C° 0 mm 2 m/s 725 mmHg 79%
    04:00 +20°C° 0 mm 1 m/s 725 mmHg 79%
    05:00 +19°C° 0.9 mm 2 m/s 725 mmHg 82%
    06:00 +18°C° 0.9 mm 2 m/s 725 mmHg 85%
    07:00 +18°C° 0.9 mm 2 m/s 725 mmHg 88%
    08:00 +18°C° 0.7 mm 2 m/s 725 mmHg 88%
    09:00 +18°C° 0.7 mm 2 m/s 725 mmHg 87%
    10:00 +18°C° 0.7 mm 2 m/s 725 mmHg 87%
    11:00 +19°C° 0.4 mm 2 m/s 724 mmHg 84%
    12:00 +19°C° 0.4 mm 2 m/s 724 mmHg 80%
    13:00 +20°C° 0.4 mm 2 m/s 724 mmHg 77%
    14:00 +21°C° 0 mm 2 m/s 723 mmHg 73%
    15:00 +23°C° 0 mm 2 m/s 723 mmHg 68%
    16:00 +24°C° 0 mm 2 m/s 723 mmHg 64%
    17:00 +23°C° 0 mm 2 m/s 723 mmHg 69%
    18:00 +21°C° 0 mm 3 m/s 723 mmHg 73%
    19:00 +20°C° 0 mm 3 m/s 723 mmHg 78%
    20:00 +20°C° 0 mm 2 m/s 724 mmHg 81%
    21:00 +19°C° 0 mm 2 m/s 724 mmHg 84%
    22:00 +19°C° 0 mm 2 m/s 725 mmHg 88%
    23:00 +19°C° 0 mm 2 m/s 725 mmHg 88%

    10 Juin, Mercredi

    Heure Température Précipitation Vent Pression Humidité
    00:00 +20°C° 0 mm 1 m/s 725 mmHg 89%
    01:00 +19°C° 0 mm 1 m/s 724 mmHg 89%
    02:00 +19°C° 0 mm 1 m/s 724 mmHg 90%
    03:00 +17°C° 0 mm 0 m/s 724 mmHg 91%
    04:00 +17°C° 0 mm 0 m/s 724 mmHg 92%
    05:00 +18°C° 0 mm 0 m/s 724 mmHg 87%
    06:00 +19°C° 0 mm 0 m/s 724 mmHg 81%
    07:00 +21°C° 0 mm 0 m/s 724 mmHg 76%
    08:00 +24°C° 0 mm 1 m/s 724 mmHg 69%
    09:00 +26°C° 0 mm 1 m/s 723 mmHg 63%
    10:00 +28°C° 0 mm 2 m/s 723 mmHg 56%
    11:00 +30°C° 0 mm 2 m/s 722 mmHg 51%
    12:00 +31°C° 0 mm 3 m/s 722 mmHg 46%
    13:00 +34°C° 0 mm 4 m/s 721 mmHg 41%
    14:00 +35°C° 0 mm 4 m/s 720 mmHg 40%
    15:00 +35°C° 0 mm 5 m/s 719 mmHg 39%
    16:00 +36°C° 0 mm 5 m/s 718 mmHg 38%
    17:00 +35°C° 0 mm 5 m/s 719 mmHg 40%
    18:00 +34°C° 0 mm 5 m/s 719 mmHg 43%
    19:00 +33°C° 0 mm 4 m/s 719 mmHg 46%
    20:00 +32°C° 0 mm 4 m/s 719 mmHg 50%
    21:00 +30°C° 0 mm 4 m/s 719 mmHg 54%
    22:00 +29°C° 0 mm 4 m/s 720 mmHg 58%
    23:00 +29°C° 0.1 mm 3 m/s 719 mmHg 59%

    11 Juin, Jeudi

    Heure Température Précipitation Vent Pression Humidité
    00:00 +29°C° 0.1 mm 3 m/s 719 mmHg 60%
    01:00 +29°C° 0.1 mm 3 m/s 718 mmHg 61%
    02:00 +28°C° 0 mm 2 m/s 718 mmHg 62%
    03:00 +27°C° 0 mm 2 m/s 718 mmHg 64%
    04:00 +27°C° 0 mm 2 m/s 717 mmHg 65%
    05:00 +26°C° 0.5 mm 2 m/s 718 mmHg 71%
    06:00 +25°C° 0.5 mm 2 m/s 718 mmHg 76%
    07:00 +25°C° 0.5 mm 3 m/s 718 mmHg 81%
    08:00 +25°C° 0.5 mm 2 m/s 718 mmHg 82%
    09:00 +25°C° 0.5 mm 2 m/s 719 mmHg 82%
    10:00 +25°C° 0.5 mm 2 m/s 719 mmHg 82%
    11:00 +26°C° 0.1 mm 3 m/s 719 mmHg 72%
    12:00 +28°C° 0.1 mm 4 m/s 719 mmHg 63%
    13:00 +29°C° 0.1 mm 5 m/s 718 mmHg 53%
    14:00 +30°C° 0 mm 5 m/s 718 mmHg 49%
    15:00 +32°C° 0 mm 5 m/s 718 mmHg 45%
    16:00 +33°C° 0 mm 5 m/s 718 mmHg 40%
    17:00 +32°C° 0 mm 4 m/s 718 mmHg 42%
    18:00 +30°C° 0 mm 3 m/s 718 mmHg 44%
    19:00 +29°C° 0 mm 3 m/s 718 mmHg 47%
    20:00 +28°C° 0 mm 3 m/s 719 mmHg 48%
    21:00 +28°C° 0 mm 3 m/s 719 mmHg 49%
    22:00 +27°C° 0 mm 3 m/s 720 mmHg 51%
    23:00 +26°C° 0 mm 2 m/s 720 mmHg 54%
    Voir plus